Your Search For Job(s) in Location of 379 Return 766 job(s)
ID Job title Deadline Employer Location
Start Prev 1 2 3 4 5 6 7 8 9 10 Next End
page 3 of 16
34466 Electrician 2020-02-12 23:30:38 12-Mar CAMBODIAN SINGMENG T... Phnom Penh
34465 Receptionist 2020-02-12 23:27:38 12-Mar CAMBODIAN SINGMENG T... Phnom Penh
34460 Site Engineer 2020-02-12 15:40:16 12-Mar Tiger Power Cambodia... Phnom Penh
34459 អ្នកបើកឡានស្ទូច 2020-02-12 15:37:06 12-Mar Tiger Power Cambodia... Phnom Penh
34458 Accountant 2020-02-12 15:32:05 12-Mar Tiger Power Cambodia... Phnom Penh
34215 Stock and Admin Executive 2020-02-12 15:21:00 12-Mar CAMBODIAN SINGMENG T... Phnom Penh
34456 ប្រធានក្រុមឥណទាន 2020-02-12 15:10:25 12-Mar BNKC (Cambodia) Micr... Phnom Penh
34454 Accountant 2020-02-12 15:06:24 12-Mar BNKC (Cambodia) Micr... Phnom Penh
34455 Account Clerk 2020-02-12 15:06:20 12-Mar (Eco Garden Residenc... Phnom Penh
34452 Credit Assessment Supervisor 2020-02-12 14:51:47 12-Mar BNKC (Cambodia) Micr... Phnom Penh
34451 Credit Product Development Supervisor 2020-02-12 14:48:22 12-Mar BNKC (Cambodia) Micr... Phnom Penh
34450 Credit Operation Supervisor 2020-02-12 14:44:33 12-Mar BNKC (Cambodia) Micr... Phnom Penh
34449 Accountant 2020-02-12 14:36:09 12-Mar (Eco Garden Residenc... Phnom Penh
34447 Assistant Admin & HR 2020-02-12 14:32:08 12-Mar (Eco Garden Residenc... Phnom Penh
34446 Assistant Sous Chef 2020-02-12 14:28:59 12-Mar (Eco Garden Residenc... Phnom Penh
34444 ចុងភៅ | Cook 2020-02-12 14:24:19 12-Mar (Eco Garden Residenc... Phnom Penh
34443 Office Assistant 2020-02-12 14:02:58 12-Mar Novachem Investment ... Phnom Penh
34441 Sales Agent (Pests Control Products) 2020-02-12 13:54:38 12-Mar Novachem Investment ... Phnom Penh
34439 Communication Executive 2020-02-12 11:50:00 12-Mar HRINC (Cambodia) Co.... Phnom Penh
34464 Social Media - Internship 2020-02-12 11:23:01 27-Mar Testing Studio Phnom Penh
34461 Junior Website/App Tester 2020-02-12 10:48:10 27-Mar Testing Studio Phnom Penh
34438 BlackSmith 2020-02-12 10:44:35 22-Feb ANANA Computer Phnom Penh
34437 Corporate Sales Supervisor 2020-02-12 10:43:34 22-Feb ANANA Computer Phnom Penh
34435 Cleaner 2020-02-12 10:41:49 22-Feb ANANA Computer Phnom Penh
34434 Showroom Sales Officer 2020-02-12 10:40:11 22-Feb ANANA Computer Phnom Penh
34433 Corporate Sales Executive 2020-02-12 10:39:04 22-Feb ANANA Computer Phnom Penh
34432 Stock Keeper 2020-02-12 10:38:01 22-Feb ANANA Computer Phnom Penh
34431 Software Technician 2020-02-12 10:35:39 22-Feb ANANA Computer Phnom Penh
34430 Marketing Manager 2020-02-12 10:34:38 22-Feb ANANA Computer Phnom Penh
34137 Car Salesman 2020-02-12 09:15:00 12-Mar HRINC (Cambodia) Co.... Phnom Penh
34462 REGISTRAR 2020-02-12 08:00:00 12-Mar HRINC (Cambodia) Co.... Phnom Penh
31556 Regulatory Affairs Officer 2020-02-12 07:00:00 20-Mar HRINC (Cambodia) Co.... Phnom Penh
34429 Operation Supervisor 2020-02-11 17:31:38 11-Mar ESSILOR Phnom Penh
34427 Senior Accountant 2020-02-11 17:28:30 11-Mar ESSILOR Phnom Penh
34425 Marketing Supervisor 2020-02-11 17:25:25 11-Mar ESSILOR Phnom Penh
33152 Social Performance Manager 2020-02-11 17:05:00 11-Mar HRINC (Cambodia) Co.... Phnom Penh
32550 Senior Sale Executive (Urgent) 2020-02-11 17:00:00 11-Mar HRINC (Cambodia) Co.... Phnom Penh
34420 Sale Supervisor 2020-02-11 16:04:33 11-Mar GR Stationery (Cambo... Phnom Penh
34419 អ្នកបើកបរ 2020-02-11 16:01:53 11-Mar GR Stationery (Cambo... Phnom Penh
34418 Stock Controller 2020-02-11 15:48:52 11-Mar GR Stationery (Cambo... Phnom Penh
34417 Accountant 2020-02-11 15:46:05 11-Mar GR Stationery (Cambo... Phnom Penh
34416 Web Developer 2020-02-11 15:43:10 11-Mar GR Stationery (Cambo... Phnom Penh
34413 Marketing Manager 2020-02-11 14:08:30 11-Mar GOLD FINANCIAL GLOBA... Phnom Penh
34412 Cashier 2020-02-11 14:04:17 11-Mar GOLD FINANCIAL GLOBA... Phnom Penh
34411 Customer Service 2020-02-11 13:53:44 11-Mar GOLD FINANCIAL GLOBA... Phnom Penh
34410 Assistant Accounting Manager 2020-02-11 13:30:59 11-Mar KUBON (CAMBODIA) BIO... Phnom Penh
34404 Outdoor Sales Consultant 2020-02-11 11:06:31 11-Mar Rose Susu Internatio... Phnom Penh
34403 Training Specialists 2020-02-11 11:05:02 11-Mar KUBON (CAMBODIA) BIO... Phnom Penh
34402 Driver (Male) 2020-02-11 10:54:19 11-Mar KUBON (CAMBODIA) BIO... Phnom Penh
33891 Web Developer 2020-02-11 08:50:00 20-Mar Testing Studio Phnom Penh
You have selected 0 Items